EHI
0 0 0 0 0 0 0 0 0 0 0 0 0 0 0 0 0 0 0 0 0 0 0 0 0 0 0 0 0 0 0 0 0 0 0 0 0 0 0 0 0 0 0
0 0 0 0 0 0 0 0 0 0 0 0 0 0 0 0 0 0 0 0 0 0 0 0 0 0 0 0 0 0 0 0 0 0 0 0 0 0 0 0 0 0 0
0 0 0 0 0 0 0 0 0 0 0 0 0 0 0 0 0 0 0 0 0 0 0 0 0 0 0 0 0 0 0 0 0 0 0 0 0 0 0 0 0 0 0
0 0 0 0 0 0 0 0 0 0 0 0 0 0 0 0 0 0 0 0 0 0 0 0 0 0 0 0 0 0 0 0 0 0 0 0 0 0 0 0 0 0 0
0 0 0 0 0 0 0 0 0 0 0 0 0 0 0 0 0 0 0 0 0 0 0 0 0 0 0 0 0 0 0 0 0 0 0 0 0 0 0 0 0 0 0
0 0 0 0 0 0 0 0 0 0 0 0 0 0 0 0 0 0 0 0 0 0 0 0 0 0 0 0 0 0 0 0 0 0 0 0 0 0 0 0 0 0 0
0 0 0 0 0 0 0 0 0 0 0 0 0 0 0 0 0 0 0 0 0 0 0 0 0 0 0 0 0 0 0 0 0 0 0 0 0 0 0 0 0 0 0
0 0 0 0 0 0 0 0 0 0 0 0 0 0 0 0 0 0 0 0 0 0 0 0 0 0 0 0 0 0 0 0 0 0 0 0 0 0 0 0 0 0 0
0 0 0 0 0 0 0 0 0 0 0 0 0 0 0 0 0 0 0 0 0 0 0 0 0 0 0 0 0 0 0 0 0 0 0 0 0 0 0 0 0 0 0
0 0 0 0 0 0 0 0 0 0 0 0 0 0 0 0 0 0 0 0 0 0 0 0 0 0 0 0 0 0 0 0 0 0 0 0 0 0 0 0 0 0 0
0 0 0 0 0 0 0 0 0 0 0 0 0 0 0 0 0 0 0 0 0 0 0 0 0 0 0 0 0 0 0 0 0 0 0 0 0 0 0 0 0 0 0
0 0 0 0 0 0 0 0 0 0 0 0 0 0 0 0 0 0 0 0 0 0 0 0 0 0 0 0 0 0 0 0 0 0 0 0 0 0 0 0 0 0 0
0 0 0 0 0 0 0 0 0 0 0 0 0 0 0 0 0 0 0 0 0 0 0 0 0 0 0 0 0 0 0 0 0 0 0 0 0 0 0 0 0 0 0
0 0 0 0 0 0 0 0 0 0 0 0 0 0 0 0 0 0 0 0 0 0 0 0 0 0 0 0 0 0 0 0 0 0 0 0 0 0 0 0 0 0 0
0 0 0 0 0 0 0 0 0 0 0 0 0 0 0 0 0 0 0 0 0 0 0 0 0 0 0 0 0 0 0 0 0 0 0 0 0 0 0 0 0 0 0
0 0 0 0 0 0 0 0 0 0 0 0 0 0 0 0 0 0 0 0 0 0 0 0 0 0 0 0 0 0 0 0 0 0 0 0 0 0 0 0 0 0 0
0 0 0 0 0 0 0 0 0 0 0 0 0 0 0 0 0 0 0 0 0 0 0 0 0 0 0 0 0 0 0 0 0 0 0 0 0 0 0 0 0 0 0
0 0 0 0 0 0 0 0 0 0 0 0 0 0 0 0 0 0 0 0 0 0 0 0 0 0 0 0 0 0 0 0 0 0 0 0 0 0 0 0 0 0 0
0 0 0 0 0 0 0 0 0 0 0 0 0 0 0 0 0 0 0 0 0 0 0 0 0 0 0 0 0 0 0 0 0 0 0 0 0 0 0 0 0 0 0
0 0 0 0 0 0 0 0 0 0 0 0 0 0 0 0 0 0 0 0 0 0 0 0 0 0 0 0 0 0 0 0 0 0 0 0 0 0 0 0 0 0 0
0 0 0 0 0 0 0 0 0 0 0 0 0 0 0 0 0 0 0 0 0 0 0 0 0 0 0 0 0 0 0 0 0 0 0 0 0 0 0 0 0 0 0
0 0 0 0 0 0 0 0 0 0 0 0 0 0 0 0 0 0 0 0 0 0 0 0 0 0 0 0 0 0 0 0 0 0 0 0 0 0 0 0 0 0 0
0 0 0 0 0 0 0 0 0 0 0 0 0 0 0 0 0 0 0 0 0 0 0 0 0 0 0 0 0 0 0 0 0 0 0 0 0 0 0 0 0 0 0
0 0 0 0 0 0 0 0 0 0 0 0 0 0 0 0 0 0 0 0 0 0 0 0 0 0 0 0 0 0 0 0 0 0 0 0 0 0 0 0 0 0 0
0 0 0 0 0 0 0 0 0 0 0 0 0 0 0 0 0 0 0 0 0 0 0 0 0 0 0 0 0 0 0 0 0 0 0 0 0 0 0 0 0 0 0
0 0 0 0 0 0 0 0 0 0 0 0 0 0 0 0 0 0 0 0 0 0 0 0 0 0 0 0 0 0 0 0 0 0 0 0 0 0 0 0 0 0 0
Wind_Speed
2 1 2 2 2 2 3 3 3 3 3 3 3 3 3 3 3 3 3 3 3 3 3 3 4 3 2 2 2 2 2 3 5 4 2 2 3 4 5 4 4 4 5
2 1 2 2 2 2 3 3 3 3 3 4 3 3 4 4 4 4 5 4 4 5 4 4 4 3 3 3 2 3 3 3 4 5 3 3 3 4 4 5 5 5 4
2 2 2 2 2 3 3 4 3 3 3 3 3 4 4 4 4 5 5 5 5 6 5 5 5 4 4 3 3 4 3 3 3 4 4 3 3 3 4 4 5 4 5
2 2 2 3 3 3 3 3 3 3 3 4 4 4 5 5 5 5 5 5 5 6 6 6 6 6 6 5 5 5 4 3 3 4 4 3 3 3 2 3 5 4 5
2 3 3 3 3 3 3 3 3 3 4 4 4 4 4 4 5 5 5 6 6 6 6 6 6 8 9 7 5 5 4 4 3 4 4 4 3 3 3 2 4 5 5
2 4 4 3 3 3 4 4 4 4 4 4 4 5 5 5 9 11 8 6 6 6 6 6 6 8 10 11 11 9 7 5 5 4 4 5 5 3 3 3 3 4 4
3 4 4 3 4 4 4 4 4 4 4 4 5 5 6 8 12 12 12 6 6 6 6 6 5 6 8 5 8 10 9 10 9 5 5 6 5 3 3 4 3 4 5
3 4 4 4 4 4 4 4 4 4 4 5 5 6 6 8 12 13 13 7 6 7 7 7 6 6 6 6 5 5 5 6 7 5 5 5 5 4 4 4 4 4 5
4 5 4 4 4 4 5 5 4 4 5 5 5 6 7 9 12 13 12 4 5 7 7 7 7 6 10 11 6 6 6 6 9 10 10 9 9 8 5 2 2 3 4
5 5 5 4 4 5 5 5 4 4 5 5 6 6 7 8 12 14 13 4 5 5 5 6 10 10 11 11 7 6 7 6 5 5 6 7 5 5 7 3 2 3 3
5 5 5 4 5 5 5 4 4 5 5 6 7 7 6 9 11 14 14 5 5 5 5 5 6 11 12 13 10 7 9 7 4 4 4 4 3 3 3 3 3 3 4
4 5 5 5 5 4 4 5 4 4 5 6 6 7 6 6 9 11 14 12 10 6 6 5 6 11 12 13 9 9 11 9 3 3 4 4 3 3 3 3 3 4 4
4 5 5 5 5 4 4 5 5 4 4 5 5 7 7 5 6 12 13 13 13 7 5 9 10 11 11 8 10 11 8 4 3 4 4 4 3 3 2 2 2 3 4
5 6 5 5 5 5 4 4 4 5 5 6 6 7 7 6 5 4 5 6 8 7 5 7 10 10 8 7 7 6 4 3 4 4 3 3 2 2 2 2 2 2 3
6 6 6 5 5 5 5 5 6 7 7 8 7 6 7 8 8 10 7 5 4 5 4 3 3 3 3 3 3 3 3 3 4 3 3 3 3 3 3 2 2 2 3
6 6 5 5 5 5 6 7 10 11 15 16 15 13 10 13 15 15 14 13 12 10 6 4 5 5 5 5 4 4 4 4 4 4 3 3 3 3 3 2 2 3 4
6 6 5 5 5 5 5 6 8 8 10 13 14 15 15 15 16 15 14 13 12 11 6 5 5 5 5 5 4 4 4 4 4 4 4 4 3 3 3 3 3 3 4
6 7 7 5 5 6 6 6 6 7 8 6 8 12 14 15 15 14 13 10 7 6 5 5 5 5 5 5 5 4 4 4 4 4 4 4 4 3 3 4 3 4 4
6 5 5 5 5 6 6 6 6 7 7 7 6 7 10 11 12 12 9 5 5 5 5 5 5 5 5 5 5 4 4 4 4 4 4 4 4 4 4 4 4 7 5
6 9 8 6 6 6 6 6 6 6 7 7 7 6 4 5 5 5 4 4 4 5 5 5 5 5 5 5 5 4 4 4 4 4 4 4 4 4 4 5 4 4 4
5 7 10 7 6 6 6 7 7 7 7 7 7 7 10 6 5 5 4 4 5 5 5 5 5 5 5 4 4 5 5 4 4 4 4 4 4 4 4 4 5 5 4
5 5 5 6 6 6 7 7 7 7 8 8 7 7 11 7 5 5 5 5 5 5 5 5 5 4 5 5 5 5 5 5 5 4 4 4 4 4 4 4 4 4 4
5 6 7 6 6 9 9 7 7 7 7 7 7 6 5 5 5 5 5 5 4 4 4 4 4 4 4 4 4 5 5 5 5 5 5 4 4 4 4 4 5 5 5
6 7 7 7 7 7 7 7 7 7 7 7 6 6 5 5 5 6 5 4 4 4 4 4 4 5 6 4 4 4 4 5 4 5 6 6 5 4 4 4 5 5 5
6 6 7 7 7 7 7 7 7 7 7 7 6 6 5 5 5 5 4 4 5 4 5 4 4 4 6 6 5 5 7 9 7 5 5 5 5 5 5 5 5 5 5
6 7 7 7 7 7 7 7 7 7 7 6 6 5 5 5 5 5 4 4 4 4 4 4 5 5 5 5 6 8 9 10 9 9 5 4 5 5 5 4 5 5 6
Wind_Direction
311 314 301 289 277 260 250 253 252 251 245 241 240 239 239 239 230 220 229 227 229 240 237 230 241 234 233 237 227 220 223 219 253 273 268 284 293 307 318 316 309 313 318
303 307 293 291 294 281 274 271 261 256 251 245 242 240 242 240 230 222 231 229 227 235 238 234 243 238 237 235 227 228 231 226 238 270 281 284 280 295 303 310 318 321 311
306 305 302 299 295 285 281 278 268 260 262 256 241 241 244 242 237 230 225 228 228 232 230 229 236 230 240 239 233 235 237 242 234 257 276 273 276 290 303 304 307 304 313
306 300 290 284 278 277 282 281 275 266 263 261 250 246 246 245 241 236 230 231 231 234 232 231 231 226 233 233 235 234 233 240 242 253 268 276 275 279 291 304 313 315 313
293 285 276 280 283 285 287 286 286 278 268 260 256 255 250 246 242 235 232 230 230 236 237 234 233 235 238 236 234 225 220 230 239 249 264 275 280 286 289 291 304 311 301
278 274 277 282 287 286 286 289 290 285 278 268 259 256 256 255 260 256 246 230 229 232 240 241 242 248 250 250 250 244 231 228 233 240 255 264 272 266 270 284 300 317 311
282 283 284 284 285 284 286 290 284 281 277 274 268 260 258 260 267 267 261 244 228 231 235 239 244 242 245 242 254 258 258 255 249 239 243 254 261 252 260 275 275 279 276
284 284 284 281 282 285 285 280 278 276 274 272 271 265 263 265 271 270 267 254 234 231 231 231 235 242 236 232 231 239 243 251 255 250 240 247 245 242 235 251 264 276 272
279 279 280 278 280 284 282 280 278 276 278 273 271 266 264 269 272 271 268 248 240 237 233 230 232 235 246 248 240 238 246 251 258 255 255 259 266 271 266 255 268 289 294
272 275 279 276 272 273 274 277 275 270 272 277 276 267 260 265 271 271 267 243 241 243 238 235 242 242 247 250 241 235 247 249 238 253 261 269 269 275 279 249 231 255 277
273 280 282 275 269 269 273 271 275 278 282 280 279 277 265 263 272 272 267 247 233 239 240 238 238 248 251 251 248 236 245 250 231 234 242 247 248 247 250 242 226 227 240
278 280 280 277 274 275 271 276 272 269 278 282 283 285 271 264 267 270 269 262 251 238 240 237 238 249 254 255 254 248 252 255 233 230 237 242 242 244 244 240 238 236 236
281 279 281 281 276 268 263 271 277 267 267 276 276 280 283 270 265 272 273 269 261 250 240 242 247 251 256 255 253 254 253 240 225 234 243 242 233 233 234 247 252 255 259
275 279 279 279 282 276 263 255 259 263 264 268 271 274 280 279 267 260 261 267 262 256 250 249 252 252 248 245 248 251 237 224 226 236 245 241 222 219 229 231 251 272 279
272 274 275 270 270 275 269 255 254 249 246 257 263 262 270 276 270 269 267 254 239 236 243 233 227 231 232 232 231 228 223 226 233 228 232 238 236 237 242 235 239 254 257
273 273 270 270 270 269 275 283 263 257 266 265 264 266 265 265 276 277 272 267 263 253 249 231 232 230 233 234 235 233 225 225 225 223 226 231 234 235 243 238 236 242 257
260 269 272 271 270 273 274 279 291 289 271 268 270 274 272 275 277 276 272 268 262 254 247 237 234 232 232 231 230 228 229 226 220 220 227 229 229 230 234 239 243 250 258
260 265 267 266 267 270 271 271 273 282 292 289 280 279 280 280 279 276 272 270 257 245 237 238 237 233 228 227 226 226 228 226 223 225 225 223 218 221 228 233 237 244 258
264 265 264 265 267 268 269 270 271 272 275 281 287 284 280 282 281 275 271 254 247 246 241 239 236 232 227 225 224 221 220 224 223 220 223 221 215 215 227 231 236 252 259
264 268 271 269 270 270 268 269 270 270 272 274 276 278 283 279 271 265 251 242 245 248 245 241 237 232 226 223 222 218 220 223 221 220 221 218 214 214 225 231 235 244 251
266 271 274 273 267 267 269 268 268 268 269 271 270 270 273 270 265 261 255 246 242 245 245 243 239 232 227 221 218 218 220 223 221 218 218 217 212 218 225 230 236 242 250
261 266 267 267 270 270 271 267 266 266 268 270 273 273 276 270 260 258 254 250 244 240 239 239 240 233 223 217 213 214 219 222 220 214 214 216 216 220 224 229 237 243 249
258 265 270 269 268 273 277 269 266 266 266 267 269 270 269 261 259 257 255 252 246 243 238 234 237 236 225 216 210 209 216 220 215 207 209 215 217 219 222 230 236 243 251
255 260 267 271 271 268 269 270 268 266 266 265 265 266 265 262 261 259 256 252 247 243 237 231 230 231 226 220 216 214 216 216 209 208 208 213 216 219 223 232 238 243 251
258 262 265 268 270 271 271 271 270 268 266 265 264 263 262 260 260 260 255 250 247 244 240 232 229 228 225 222 220 219 225 227 225 217 209 209 213 218 224 233 239 246 251
262 263 266 267 268 269 269 271 271 268 266 265 262 260 259 258 257 257 253 247 246 245 243 235 226 224 222 222 223 227 233 235 232 227 217 207 211 221 225 235 239 246 251